Probability
2 9 17 16 10 7 6 7 5 3 2 0 0 0 0 0 0 0 0 0 0 0 1 0 0 0 0 0 0 0 0 0 0 0 0 0 0 0 0 0 0 0 0
3 10 17 18 13 8 8 9 7 6 4 1 0 0 0 0 0 0 0 0 0 0 1 2 1 1 0 0 0 0 0 0 0 0 0 0 0 0 0 0 0 0 0
5 11 18 20 15 10 10 11 9 8 7 3 1 0 0 0 0 0 0 0 0 0 1 3 4 3 1 0 0 0 0 0 0 0 0 0 0 0 0 0 0 0 0
7 13 20 22 18 13 12 12 10 9 8 5 3 2 1 0 0 0 0 0 0 0 0 2 5 4 2 0 0 0 1 1 1 0 0 0 0 0 0 0 0 0 0
11 15 21 25 23 17 14 13 11 9 8 8 7 5 3 1 0 0 0 0 0 0 0 1 4 4 3 1 0 1 2 2 2 1 0 0 0 0 0 0 0 0 0
13 17 23 28 28 23 17 14 12 9 8 9 8 6 3 1 0 0 0 0 0 0 0 1 3 5 3 2 1 2 3 3 2 1 0 0 0 0 0 0 0 0 0
15 19 25 30 31 28 21 15 13 11 9 7 6 4 2 1 0 0 0 0 0 0 0 1 3 5 4 2 2 4 4 3 1 0 0 0 0 0 0 0 0 0 0
17 20 25 29 31 30 23 17 15 13 10 7 5 3 1 0 0 0 0 0 0 0 1 1 3 4 4 3 3 4 4 2 1 0 0 0 0 0 1 1 0 0 0
21 24 27 28 27 26 23 18 14 12 10 8 6 4 2 0 0 0 0 0 0 1 2 3 3 4 5 4 3 3 3 2 1 0 0 0 0 0 1 1 1 1 0
26 28 30 28 24 22 22 18 13 10 9 8 6 4 2 0 0 0 0 0 1 3 4 4 3 3 4 4 2 1 1 1 0 0 0 0 0 0 1 1 1 1 1
30 31 31 29 26 24 24 20 14 10 9 8 6 3 1 0 0 0 0 0 1 2 4 3 2 2 2 2 2 1 0 0 1 2 1 0 0 0 0 0 1 1 0
29 29 29 30 30 30 29 24 17 13 10 7 5 3 1 0 0 0 0 0 0 1 1 1 1 1 1 1 2 2 1 1 2 3 2 1 0 0 0 0 0 0 0
24 25 27 29 30 31 29 25 21 16 11 8 6 4 2 0 0 1 1 1 0 0 0 1 1 1 1 1 2 3 2 2 2 3 2 1 0 0 0 0 0 0 0
19 21 24 26 26 25 23 22 20 16 12 9 7 4 2 0 0 1 2 1 0 0 0 1 2 2 1 0 1 2 3 2 2 1 1 0 0 0 0 0 0 0 1
14 17 20 21 20 18 17 18 17 14 11 9 7 3 1 0 0 1 1 1 0 0 0 1 2 3 2 1 0 1 2 2 1 0 0 0 0 0 0 0 0 0 1
9 12 14 14 12 11 13 14 14 12 10 8 4 1 0 0 0 0 1 1 0 0 0 0 1 3 3 2 1 1 2 2 1 0 0 0 0 0 0 0 0 0 1
5 7 9 8 7 7 8 10 11 11 10 6 2 0 0 0 0 0 0 0 0 0 1 1 1 2 3 3 1 0 1 2 1 0 0 0 0 0 0 0 0 0 0
3 4 5 5 5 4 5 7 9 9 7 3 1 0 0 0 0 0 0 0 0 1 2 2 1 1 2 3 2 1 1 1 1 0 0 0 0 0 0 0 0 0 0
3 2 3 3 3 3 3 4 5 5 4 2 0 0 0 0 0 0 0 0 0 1 2 2 1 0 1 3 3 1 0 0 0 0 0 0 0 0 0 0 0 0 0
2 2 2 2 2 2 1 1 2 3 3 1 0 0 0 0 0 0 0 0 0 0 1 1 1 0 1 2 2 2 1 0 0 0 0 0 0 0 0 0 0 0 0
1 2 3 2 1 1 0 0 1 2 2 1 0 0 0 0 0 0 0 0 0 0 1 2 1 0 0 1 1 2 1 1 1 0 0 0 0 0 0 0 0 0 0
1 1 2 2 1 0 0 0 1 1 1 0 0 0 0 0 0 0 0 0 0 0 1 1 1 0 0 0 1 1 1 1 1 0 0 0 0 0 0 0 0 0 0
2 1 1 1 1 1 1 0 0 0 0 0 0 0 0 0 0 0 0 0 0 0 0 0 0 0 0 0 1 1 0 0 1 1 0 0 0 0 0 0 0 0 0
1 1 0 1 2 2 1 0 0 0 0 0 0 0 0 0 0 0 0 0 0 0 0 0 0 0 0 0 0 0 0 1 2 1 0 0 0 0 0 0 0 0 0
0 0 0 1 2 3 2 1 0 0 0 0 0 0 0 0 0 0 0 0 0 0 0 0 0 0 0 0 0 0 0 1 1 1 0 0 0 0 0 0 0 0 0
0 0 0 1 2 3 2 1 0 0 0 0 0 0 0 0 0 0 0 0 0 0 0 0 0 0 0 0 0 0 0 0 1 0 0 0 0 0 0 0 0 0 0
Wind_Speed
4 5 6 5 5 6 6 6 6 7 8 8 8 8 8 8 8 7 7 7 7 7 7 7 7 7 8 8 8 8 8 8 7 7 6 7 7 7 7 5 2 6 8
4 6 7 6 6 6 6 6 6 6 7 7 8 8 8 8 8 7 7 7 7 6 6 6 7 7 7 7 7 7 7 7 6 6 3 5 5 6 6 5 5 6 6
5 6 8 6 6 6 6 6 6 6 7 7 7 7 8 8 7 7 7 6 6 6 6 6 6 6 6 6 6 6 6 6 6 4 2 3 6 6 5 5 5 5 5
5 6 6 6 6 6 6 6 6 7 7 7 7 7 7 7 7 6 6 6 6 6 6 6 6 6 5 6 6 6 6 6 5 2 2 3 4 6 4 4 4 4 4
5 5 6 6 6 6 6 6 7 7 7 7 6 6 7 7 7 6 6 6 5 5 6 6 6 6 5 5 5 6 6 6 3 2 3 3 3 5 4 4 5 4 4
5 5 7 6 6 6 6 6 7 7 7 7 7 6 6 6 6 6 6 5 5 5 5 6 6 6 6 6 5 5 5 3 3 2 2 2 3 5 4 4 4 4 3
4 5 6 6 6 6 6 6 6 7 7 7 7 7 6 6 6 6 6 6 5 5 5 6 6 6 6 5 5 5 4 1 1 2 2 2 4 4 3 3 3 4 4
4 5 6 6 6 6 6 6 5 6 6 6 6 7 7 6 6 6 5 5 5 5 6 6 6 6 6 5 5 5 4 1 2 2 2 2 4 2 3 3 3 3 4
3 4 5 6 7 6 6 6 5 5 5 5 6 6 6 6 5 5 5 5 5 5 5 6 6 6 5 5 5 5 3 1 1 2 2 2 4 3 3 4 4 4 4
3 3 4 5 6 6 6 6 6 5 5 5 5 6 6 6 5 5 5 5 5 5 5 5 6 5 5 5 4 4 2 3 2 2 1 3 3 3 4 4 4 4 4
3 3 3 4 5 5 5 6 6 6 6 6 6 6 5 5 5 4 5 5 5 5 5 5 6 6 5 5 4 2 2 1 2 1 2 4 3 3 3 4 4 4 3
4 4 3 4 4 5 4 5 5 5 6 5 5 5 3 3 3 4 6 5 5 4 5 5 5 5 3 3 4 2 1 1 1 1 3 4 2 2 3 3 3 4 4
5 4 4 4 4 4 4 4 3 3 4 4 5 4 3 3 3 3 3 4 4 3 3 4 4 2 2 2 1 2 1 1 1 1 4 4 2 3 3 3 3 3 3
5 5 3 4 4 4 4 4 4 3 3 3 4 4 3 2 2 2 2 3 2 2 2 2 1 2 2 2 2 2 2 1 1 1 4 6 4 4 3 3 4 3 3
6 5 5 4 4 3 4 3 3 3 3 4 3 4 3 2 2 2 2 2 2 2 2 2 2 3 2 2 1 2 2 2 2 2 3 6 6 5 4 4 4 3 3
7 6 5 5 4 4 3 3 3 3 3 3 3 4 4 3 2 2 2 2 2 2 2 2 3 3 2 2 2 1 2 2 2 2 2 4 6 6 6 6 5 4 4
6 6 5 5 5 5 4 4 3 3 3 3 3 4 4 3 3 2 2 2 3 3 3 2 3 2 2 2 2 2 1 1 2 2 2 2 3 5 6 6 6 5 5
5 5 5 4 5 5 4 3 3 3 3 3 3 3 4 3 3 2 2 2 2 3 3 3 2 2 2 2 2 1 1 1 2 2 2 2 2 2 4 6 6 5 5
5 5 5 5 4 4 4 3 3 4 3 3 3 3 3 4 3 2 2 2 3 3 3 3 3 2 2 2 2 1 1 1 2 2 2 2 2 2 2 3 4 5 5
4 5 5 5 4 3 3 3 3 4 3 2 2 3 4 3 3 3 2 3 2 3 3 3 4 3 2 2 2 1 1 1 1 2 2 2 1 1 1 1 1 2 4
5 5 5 5 5 4 2 3 3 4 3 2 2 3 4 4 4 3 2 3 2 3 4 4 4 4 3 2 2 2 2 2 1 1 1 1 1 1 0 1 1 1 1
5 6 6 6 6 5 3 2 2 3 3 2 2 2 3 3 3 3 3 3 3 2 4 5 4 3 2 2 2 2 2 3 2 2 2 1 1 1 1 0 0 1 1
6 7 6 6 6 6 5 3 2 2 2 2 3 2 3 3 3 3 3 3 3 3 3 5 5 4 4 3 2 2 2 2 1 3 3 3 2 2 1 1 1 1 1
6 6 6 6 6 6 6 5 6 4 4 3 3 3 3 3 3 3 3 3 3 3 3 4 5 4 5 4 3 2 2 1 2 2 3 3 3 3 2 2 2 2 2
6 6 6 6 6 6 6 6 6 4 3 3 3 4 3 3 3 3 3 3 3 3 3 3 4 5 4 4 3 3 2 2 3 2 3 3 3 3 2 3 3 2 2
6 6 6 6 6 6 6 6 6 6 5 5 5 4 3 2 3 3 3 3 3 3 3 3 4 5 5 5 4 4 3 3 3 3 3 3 3 2 3 3 3 3 2
Wind_Direction
158 155 149 150 144 141 142 144 143 140 137 139 137 133 133 131 126 121 114 111 109 106 107 105 103 101 101 101 99 96 95 89 85 83 78 76 79 83 81 75 73 92 81
154 155 151 152 148 144 139 141 142 141 138 140 139 136 134 132 128 123 121 117 112 107 105 106 104 103 102 102 100 99 97 95 91 88 92 113 92 83 82 67 38 69 79
149 152 156 153 151 148 144 144 136 140 143 141 140 137 134 131 127 126 123 119 112 108 104 103 102 100 100 102 102 100 99 96 97 103 196 128 103 91 87 80 70 79 82
155 155 159 151 153 152 149 147 142 138 141 144 142 138 134 131 127 123 124 121 114 108 104 98 98 99 99 100 101 100 98 96 98 175 163 94 99 89 83 86 81 81 85
159 160 150 151 154 157 155 152 148 141 140 141 140 138 135 133 130 126 118 117 113 109 107 103 99 98 100 100 100 99 96 95 116 194 95 90 87 87 80 83 82 77 84
164 163 150 152 154 157 156 155 153 147 142 136 136 135 136 138 134 126 120 111 111 111 110 106 99 96 94 96 100 101 98 103 196 123 98 92 86 85 78 77 81 79 86
172 167 159 157 156 154 155 160 157 152 147 142 143 142 137 138 136 129 122 118 115 115 116 111 105 100 96 94 96 99 98 97 177 111 98 87 76 74 77 85 87 83 79
178 177 166 160 159 159 156 156 159 155 148 144 143 146 140 129 125 121 120 121 119 117 119 115 111 103 97 95 94 93 94 271 156 115 106 91 68 71 87 90 90 86 77
181 180 173 175 168 163 156 154 154 150 144 138 133 133 130 126 123 119 112 110 111 111 115 115 108 103 96 91 92 90 85 304 208 106 102 83 73 81 92 94 86 79 74
187 182 176 180 176 174 167 148 141 138 134 126 116 111 113 120 121 119 120 107 105 102 108 113 108 105 96 89 89 95 107 234 133 115 103 81 73 80 91 91 85 78 72
202 190 177 182 180 176 171 148 142 133 127 128 121 115 135 150 146 145 106 100 105 101 101 109 112 109 110 103 90 102 203 176 119 96 77 63 70 77 86 88 88 85 79
215 205 191 188 181 176 168 158 162 156 151 156 146 151 158 146 136 127 104 94 100 102 106 101 114 135 168 134 129 185 162 135 111 92 70 59 77 87 92 91 93 88 84
215 208 204 189 180 174 165 164 161 159 159 156 151 152 150 142 142 150 146 138 137 149 137 132 152 145 134 122 134 137 126 129 105 87 68 55 75 94 95 95 91 90 84
218 209 203 196 179 168 168 165 161 158 162 153 152 154 158 151 159 155 162 153 155 150 147 154 144 133 131 136 139 141 140 135 109 88 67 51 59 78 84 85 82 79 84
223 211 200 190 184 163 165 165 159 160 162 152 152 162 162 162 160 152 155 160 156 146 157 152 150 140 133 117 118 139 139 133 121 115 98 63 50 59 67 70 78 69 68
222 213 201 184 178 165 163 162 160 162 155 153 152 155 162 161 162 158 147 162 156 156 151 159 147 148 137 129 122 122 130 131 125 119 108 100 68 55 58 61 64 67 63
221 212 201 184 174 164 157 163 157 157 148 148 146 151 154 155 156 158 148 161 162 162 155 151 142 139 133 135 134 121 99 111 127 120 111 96 100 79 60 55 52 55 53
218 204 194 185 174 170 155 160 153 155 150 145 148 151 151 146 151 154 154 153 164 164 160 151 157 145 140 144 141 132 126 119 120 115 117 106 84 83 80 58 46 44 42
216 196 183 178 172 170 153 151 153 149 145 145 152 154 151 148 155 155 154 145 166 170 164 159 160 155 149 147 133 126 118 126 125 129 119 103 89 72 67 84 63 46 38
207 193 181 168 157 156 145 139 145 136 138 143 152 157 156 155 160 156 152 158 166 173 167 164 156 151 148 147 141 128 125 123 139 128 133 124 104 85 50 35 86 76 52
188 186 179 171 155 148 153 157 165 153 150 153 156 157 165 165 163 160 153 164 173 178 175 168 158 154 146 151 159 151 159 170 168 164 169 157 137 127 71 21 347 331 82
186 184 174 177 169 166 165 167 189 152 154 148 152 162 171 175 171 165 166 171 177 173 177 173 165 164 161 184 204 185 189 187 185 203 205 201 197 190 213 269 311 320 325
193 193 179 176 178 170 162 147 140 128 133 147 165 172 185 183 179 177 178 178 178 180 182 184 180 182 176 180 219 232 216 210 178 194 211 218 219 225 229 232 241 262 283
195 195 186 178 177 169 167 168 172 180 174 178 177 176 178 183 183 185 184 181 180 187 189 196 194 194 190 186 188 233 284 296 218 205 199 213 230 249 255 250 235 236 252
190 193 188 182 177 172 176 180 181 188 175 158 165 171 172 177 181 185 190 188 188 191 194 202 200 199 202 200 193 192 207 227 240 235 236 221 230 235 252 260 248 245 248
186 186 186 184 183 176 174 184 184 180 170 161 173 176 178 178 185 191 197 197 195 192 195 204 206 206 208 208 207 207 210 215 213 223 244 248 254 248 255 250 249 252 253